Classifica Sprint – Maschile

Classifica Sprint – Maschile
POSIZIONEPETTORALECOGNOMENOMEANNOCATEGORIANOME TEAMTEMPOORA ARRIVODISTACCO
12POZZATTIGIANLUCA1993S170700:56:1311:36:21.1000:00:00
25BUTTURINIJACOPO1991S2TRIATHLON CREMONA ST00:57:1411:37:23.0500:01:02
33MOSSORICCARDO1994S170700:58:3411:38:42.6500:02:22
46HOFERDANIEL1983S3VENUS TRIATHLON00:58:4611:38:54.4500:02:34
57SALINIGABRIELE1982S470700:59:2811:39:36.9000:03:16
615TERRANOVAALESSANDRO1985S3DERMOVITAMINA B) SID01:00:0311:40:11.4500:03:51
7451KISSGERGELY2001YBESTERO01:00:1311:40:21.7500:04:01
88CRIVELLAROTOMMASO1993S1DDS01:00:3711:40:45.7500:04:25
919ZENTILUCA1994S1T'N'T SSD01:00:5111:40:59.4500:04:39
10452TAMASPAPP1998JUESTERO01:01:1411:41:22.8000:05:02
1114DAVIDECHRISTIAN1997S1THE HURRICANE S.S.D.01:01:2511:41:33.4500:05:13
1236IORIATTIGABRIELE1999JUFERSENTRI A.S.D.01:01:3011:41:39.0500:05:18
1317CIVERAFABIO1981S470701:01:3311:41:41.3000:05:21
149TORODANIELE1997S1THE HURRICANE S.S.D.01:01:4511:41:53.5000:05:33
1520BORTOLAMEDIMICHELE2001YBFERSENTRI A.S.D.01:01:4811:41:56.7000:05:36
1613FORTEMATTEO1997S1CY LASER TRI SCHIO01:01:5011:41:58.2500:05:38
1730FINAZZIGIUSEPPE1982S470701:01:5011:41:58.7500:05:38
1821CIOTTIEMANUELE1980S4THE HURRICANE S.S.D.01:01:5411:42:03.0000:05:42
1911RAINOLTERANDREA1994S1POOL CANTU' 1999 A.S01:02:0211:42:10.6500:05:50
2029MARCHETTIETTORE1987S3THE HURRICANE S.S.D.01:02:1211:42:20.3000:06:00
2123PASTOREENRICO1979S4DESENZANO TRIATHLON01:02:1411:42:22.8500:06:02
2260POPPILUCA1991S2A.S.D. SESSANTALLORA01:02:1511:42:24.0000:06:03
2346PIZZEGHELLAANDREA1989S2TRIATHLON CREMONA ST01:02:2711:42:35.3500:06:15
2435DI MARINOMATTEO1992S2TRI ALTO ADIGE01:02:2911:42:37.6500:06:17
2518GOMIERODAVIDE1989S2G.P. TRIATHLON01:02:3211:42:40.6000:06:20
2639MARINIMASSIMILIANO1982S4FREEZONE01:02:3211:42:40.6000:06:20
2722FRACCAROBERTO1987S3DESENZANO TRIATHLON01:02:5211:43:00.5000:06:40
28453KOVACSHEGYIBENCE1995S1ESTERO01:03:0211:43:10.1500:06:49
2944CURRIDORIGIOVANNI1979S4ASD NADIR ON THE ROA01:03:1411:43:22.1500:07:01
3010PIRANILUCA1997S1THE HURRICANE S.S.D.01:03:3211:43:40.3000:07:20
3112DI SILVIOPIETRO FELICE1994S1THE HURRICANE S.S.D.01:03:3211:43:40.4500:07:20
3234BUFFANICOLA1984S3VERONA TRIATHLON01:03:4011:43:48.6500:07:28
3316BLANDINAFRANCESCO1976M1CY LASER TRI SCHIO01:03:4611:43:55.0000:07:34
3424CARIDIMATTEO1975M170701:03:5011:43:58.6500:07:38
3545ALLEGRAALESSANDRO1982S4MAGMA TEAM01:03:5711:44:05.1500:07:44
3647SCHIROSIAUGUSTO1973M1BUSTO ARSIZIO A.R.C.01:03:5811:44:06.5000:07:46
3794BORTOLETTOMARCO1999JUCUS PADOVA A.S.D.01:04:0011:44:08.8500:07:48
38330BERTAZZOOMAR1989S2A.S.D. RHODIGIUM TEA01:04:0211:51:10.0500:07:50
3938SIRIGULORENZO1981S470701:04:0711:44:15.2000:07:55
4048CAPELLODAVIDE1998JUSCGS BULLRING01:04:1511:44:24.0500:08:03
4127SERRATOREANTONIO1991S270701:04:1611:44:24.1000:08:03
42345MANTOLINISIMONE1982S4THE HURRICANE S.S.D.01:04:1711:56:28.1500:08:04
4367SCARPELLIIVANO1976M170701:04:1811:44:26.7500:08:06
4451BELLEMOMICHELE1973M1A.S. DELFINO CHIOGGI01:04:2011:44:28.4000:08:08
4532LAVELLIMASSIMO1975M1FREEZONE01:04:2911:44:37.8000:08:17
46106TUZZATOFEDERICO1994S1PADOVANUOTO TRI01:04:3311:44:41.5500:08:21
4728MANENTIGIOVANNI1998JUTRIATHLON CREMONA ST01:04:3511:44:43.8500:08:23
4831VERZELLADAVIDE1999JUTHE HURRICANE S.S.D.01:04:3611:44:44.3000:08:24
4987CARAFFINIANDREA1980S4SPORT MANAGEMENT01:04:4511:44:53.2500:08:33
5025TOSIMARCO1984S3FERALPI TRIATHLON01:04:4911:44:58.0000:08:37
5133GATTIMARCO1985S3OTRI 1 COMO01:04:5211:45:00.2500:08:40
52322BELLUZZOANDREA1991S2PESCHIERA TRI01:04:5211:51:59.8000:08:40
5361PIOVESANAANDREA1981S4DERMOVITAMINA B) SID01:04:5611:45:04.4500:08:44
5426DI GHIONNOPASQUALE1983S3THE HURRICANE S.S.D.01:04:5711:45:05.7000:08:45
5552FERRARIMASSIMO1967M3FERALPI TRIATHLON01:04:5711:45:05.8000:08:45
5657DOSSELLILUCA1989S270701:04:5811:45:06.7000:08:46
5756PAGANISTEFANO1989S270701:05:0911:45:17.6500:08:57
5853BEDUZZIDAVIDE2001YBT'N'T SSD01:05:1111:45:19.5500:08:59
5943SANDRINISIMONE1988S2S.S.D. SCHIANTARELLI01:05:1911:45:27.7000:09:07
6063DALL'AGNOLAANDREA1988S2VERONA TRIATHLON01:05:2411:45:32.5500:09:12
6141BOMBARDELLIPATRICK1983S3DOLOMITICA NUOTO CTT01:05:4211:45:50.9500:09:30
6259VANGELISTIMARCO1978S4DERMOVITAMINA B) SID01:05:4511:45:53.9000:09:33
6393RITARDOANDREA1995S1FERALPI TRIATHLON01:05:4811:45:56.2500:09:36
6464TOMASETTOALESSANDRO1983S3ACQUAMBIENTE TRIATHL01:05:5311:46:01.4000:09:41
6550SPECIALERICCARDO1995S1LIGER TEAM KEYLINE01:05:5811:46:07.0500:09:46
6640ARGENTONPIETRO1996S1CUS PADOVA A.S.D.01:06:0411:46:12.2000:09:52
67111MARCHIORIMICHELE1977M1TREVISO TRI01:06:0511:46:13.1000:09:52
6884GENNARINICOLA1978S4FERALPI TRIATHLON01:06:0811:46:16.6500:09:56
6992VITAALESSANDRO1996S1TRITEAMPORDENONE01:06:2911:46:37.3500:10:17
70611CAGLIARIPAOLO1977M1TESSERAMENTO GIORNALIERO01:06:3911:58:50.7500:10:27
7175DI LEOMASSIMO1968M2TRIATHLON BERGAMO01:06:4911:46:57.2500:10:37
7269ABATIALBERTO1980S470701:06:5111:46:59.5000:10:39
7377TURRINAMARCO1974M1DESENZANO TRIATHLON01:06:5511:47:04.0500:10:43
74105ZAFFIRILEONARDO1972M2STEEL T - BG01:06:5911:47:07.4500:10:47
7558MOTTOLAFRANCESCO1981S4KINO - MANA01:07:0011:47:08.3500:10:48
76103VENTURAGIOVANNI1970M270701:07:0911:47:17.4500:10:57
77375SICHETTILORENZO1977M1THE HURRICANE S.S.D.01:07:1911:59:30.1500:11:06
78127CICCIARELLAGIUSEPPE1985S3VERONA TRIATHLON01:07:2111:47:29.3500:11:09
7965NASUELLINICOLA1979S4CUSIOCUP01:07:2511:47:33.7500:11:13
80369VERNAFRANCESCO1977M1THE HURRICANE S.S.D.01:07:3011:59:41.4500:11:18
8174LOSMASIMONE1974M1STEEL T - BG01:07:3011:47:38.8000:11:18
82356AIELLIANTONIO1980S4THE HURRICANE S.S.D.01:07:3111:59:42.9500:11:19
8378ALBINICARLO1968M2ASD TEAM HIBISCUS01:07:3611:47:44.6500:11:24
84138FERRARESEVICHHAY2001YBT'N'T SSD01:07:3711:47:45.9000:11:25
85334SALVATI PROIETTICARLO1986S3DOLOMITICA NUOTO CTT01:07:3911:59:50.8000:11:27
8672TORTELLAGIACOMO1981S4PESCHIERA TRI01:07:4711:47:55.9000:11:35
87355CELEBRESAVERIO1980S4THE HURRICANE S.S.D.01:07:5112:00:02.9500:11:39
88314MUZZARELLIGIANMARCO1996S1STEEL T - BG01:07:5411:55:01.2500:11:42
89108BULETTORICCARDO1991S2FERALPI TRIATHLON01:07:5511:48:04.0500:11:43
90177COMAIALESSANDRO1989S2VENUS TRIATHLON01:07:5711:55:04.5000:11:45
9186ZANNONIDIEGO1980S4CY LASER TRI SCHIO01:07:5711:48:06.0500:11:45
9283PELINOGIOVANNI1974M1TRAGUARDO VOLANTE01:08:0611:48:14.2000:11:54
93118BAZZOLIMARCO1983S3PESCHIERA TRI01:08:0611:48:14.5000:11:54
94363FERRARIGIANPIETRO1978S4FREEZONE01:08:0612:00:18.0500:11:54
9562AGNELLOEMILIANO1973M1RASCHIANI TRI PAVESE01:08:1811:48:26.3500:12:06
96101ZELLIGIANLUCA1973M1THE HURRICANE S.S.D.01:08:2311:48:31.4000:12:11
97269MOROROBERTO1969M2FUEL TRIATHLON01:08:2511:55:32.7500:12:13
9881VISINALIANTONIO FRANCESCO1987S3PROPATRIA MILANO01:08:2711:48:35.4000:12:15
99376FRESILUCA1977M1VERONA TRIATHLON01:08:2812:00:39.3000:12:16
100313PIOMBOGIACOMO1996S1CINGHIALI MANNARI01:08:3311:55:40.6000:12:21
101331PATANE'CLAUDIO1988S2PROPATRIA MILANO01:08:3312:00:45.0000:12:21
102400LISTORTILUCA1973M1THE HURRICANE S.S.D.01:08:3912:00:50.7000:12:27
10390OLLA'GAETANO1987S3BUSTO ARSIZIO A.R.C.01:08:4611:48:54.2500:12:34
104114PICCIONEGIANFRANCO1977M1TRIATHLON COLLI VELO01:08:4711:48:55.9500:12:35
105417SORBARICCARDO1970M2FREEZONE01:08:4712:00:59.0500:12:35
10699SALAEUGENIO1983S3SPARTACUS TRILECCO01:08:5611:49:04.1000:12:43
107381MERLINDAVIDE1976M1PADOVA TRIATHLON01:08:5612:01:07.7500:12:44
10866MORETTIALESSANDRO1971M2AQUATIC CENTER TRIAT01:09:0611:49:14.7500:12:54
109341BOGLIONIMICHELE1984S3FREEZONE01:09:0712:01:18.1000:12:54
11082MONTENEGROLUCA1965M3TREVISO TRI01:09:0911:49:17.3000:12:57
111494ZADRAENRICO1977M1TESSERAMENTO GIORNALIERO01:09:1112:01:22.7000:12:59
11270BOLLETTACLAUDIO1966M3A301:09:1411:49:22.5500:13:02
113398IEZZIALESSANDRO1974M1THE HURRICANE S.S.D.01:09:1612:01:27.1500:13:03
114120ZUFFETTIANDREA1981S4SGM TRIATHLON01:09:1611:49:24.7000:13:04
11591SCARINCISTEFANO1979S4SPORTSLIFE01:09:2411:49:33.0500:13:12
116426CINCELLIFRANCESCO1968M2DOLOMITICA NUOTO CTT01:09:3112:01:42.6000:13:19
117370DELCHIAPPOALBERTO1977M1A.S.D. 3T01:09:3312:01:44.7000:13:21
118162CRISTINIALESSANDRO1980S4DESENZANO TRIATHLON01:09:3511:49:43.9000:13:23
11996GAVAMAURO1979S4TRITEAMPORDENONE01:09:3911:49:47.7000:13:27
120382BANDIERAMATTEO1976M1A301:09:4012:01:51.1500:13:27
12197ROSSIFILIPPO1970M2VERONA TRIATHLON01:09:4311:49:51.2000:13:31
122115GOTTARDISTEFANO1962M4DESENZANO TRIATHLON01:09:5411:50:02.7500:13:42
123427BARPTONI1968M2A301:09:5612:02:07.2500:13:44
124357BOZZATOALESSANDRO1980S4A.S. DELFINO CHIOGGI01:09:5912:02:10.4500:13:47
125112MACCAGNIWILLIAM1978S4IRONLARIOTRIATH01:09:5911:50:07.4500:13:47
126100RONCHIHERMES1978S4ASD 226 TRIATHLON V.01:10:2811:50:36.3500:14:16
127353PATANIAGUIDO1980S4OTRI 1 COMO01:10:3112:02:42.8500:14:19
128432DE NARDIALESSIO1966M3CUS TRENTO CTT01:10:4212:02:53.1500:14:29
129129RAVELLIALESSANDRO1981S4FREEZONE01:10:4511:50:53.5000:14:33
130117SCOTTIALBERTO1986S3S.S.D. SCHIANTARELLI01:10:5011:50:58.7500:14:38
131329BORIEROMATTEO1989S2CY LASER TRI SCHIO01:10:5011:57:57.8000:14:38
132131LUCCHINILUCA1976M1PESCHIERA TRI01:10:5411:51:02.9000:14:42
133126STRAZZERGIOVANNI1965M3TRAGUARDO VOLANTE01:11:0011:51:08.9500:14:48
134116GROPPOSAMUEL1984S3TRIBU'01:11:0811:51:16.1500:14:55
135110FAVAROSTEFANO1972M2A301:11:2211:51:30.8000:15:10
136327TOMASETTOCRISTIAN1990S2ACQUAMBIENTE TRIATHL01:11:2911:58:36.9000:15:17
137133GOLFETTOENRICO1968M2EROI DEL PIAVE01:11:3311:51:41.7500:15:21
138448BOSCOLO MENEGUOLOTOMMASO2000YBA.S. DELFINO CHIOGGI01:11:4612:03:57.7500:15:34
13980BARAZZUTTIALESSIO1966M3G.S. BARDOLINO01:11:5111:51:59.6500:15:39
140378FAGGIONATOCARLO1977M133 TT ASD01:11:5212:04:03.2000:15:40
141109DOSSELLIANGELO1960M470701:11:5411:52:02.6500:15:42
142338FICICCHIAMAURIZIO1984S3FUMANE TRIATHLON01:11:5512:04:07.0000:15:43
143648GARAVELLOALBERTO1989S2ESTERO01:11:5712:04:08.1500:15:44
144340SARCINAALESSANDRO1984S3VERONA TRIATHLON01:11:5712:04:08.9500:15:45
145416POTENZAGIANCARLO1970M2HAPPY RUNNER CLUB01:11:5812:04:09.5500:15:46
146180FRATUCELLOCHRISTIAN1982S4MODENA TRIATHLON01:11:5911:59:06.5500:15:47
147149ZANINIDARIO1961M470701:11:5911:52:07.9500:15:47
148200ZECCHINASTEFANO1974M1S.S.D. SCHIANTARELLI01:12:0111:59:08.1000:15:48
149164MISICVUK2000YBAQUATIC CENTER TRIAT01:12:0411:52:12.4500:15:52
150165TOGNISTEFANO2000YBAQUATIC CENTER TRIAT01:12:0911:52:17.8000:15:57
151461TINCANIANDREA1989S2TESSERAMENTO GIORNALIERO01:12:1412:04:25.3000:16:02
152148PERSICHITTISTEFANO1971M2PROPATRIA MILANO01:12:1511:52:23.3500:16:03
153128BASILISCOANDREA1971M2DERMOVITAMINA B) SID01:12:2211:52:30.2500:16:10
154315BAROTTIENRICO1992S2ACQUAMBIENTE TRIATHL01:12:3911:59:46.5500:16:27
155154MANDERIOLILUCA1974M1POL.CENTESE T&D01:12:5511:53:03.7500:16:43
156457HADZIOSMANOVICARMIN1991S2TESSERAMENTO GIORNALIERO01:13:0012:05:11.1000:16:47
157130TREVISANLUCA1988S2ACQUAMBIENTE TRIATHL01:13:0111:53:09.3000:16:49
158141ARALDIDEMIS1975M1S.S.D. SCHIANTARELLI01:13:1811:53:26.4500:17:06
15988CAMPISISALVATORE1988S2A.S.MINERVA ROMA01:13:2311:53:31.9000:17:11
160181BOMICHELE1988S2GRANBIKE TRIATHLON01:13:2412:00:31.4000:17:12
161488ESPOSITORICCARDO1980S4TESSERAMENTO GIORNALIERO01:13:2412:05:35.9500:17:12
16289CARRETTACARLO MARIA1961M4PROPATRIA MILANO01:13:3011:53:38.2500:17:18
163198ANTONIOLIILARIO1991S2DESENZANO TRIATHLON01:13:3112:00:38.5500:17:19
164349LOVATOCHRISTIAN1981S4OXYGEN TRIATHLON01:13:3212:05:43.3500:17:20
165161BONATTIMARCO VALENTINO1967M3DESENZANO TRIATHLON01:13:3811:53:46.9000:17:26
166167ROMANIMATTEO1983S3DESENZANO TRIATHLON01:13:3912:00:46.1500:17:26
167401PELLIZZARISTEFANO1973M1TREVISO TRI01:13:3912:05:50.2000:17:27
168153MANFIOCESAR ENDRIGO1980S470701:13:4611:53:54.6000:17:34
169157CHINELLICRISTIAN1980S4PIACENZA TRI VIVO01:13:4911:53:57.9500:17:37
170475CAPPELLARIMATTEO1984S3TESSERAMENTO GIORNALIERO01:14:0212:06:13.1000:17:49
171151TRIVELLALEONARDO1969M2DESENZANO TRIATHLON01:14:0311:54:11.4500:17:51
172489GUSSNIGFLORIAN1979S4TESSERAMENTO GIORNALIERO01:14:0612:06:17.3000:17:54
173312CARRARAISACCO1997S1ASD 226 TRIATHLON V.01:14:0712:01:14.9500:17:55
174411DOLCIDANIELE1971M2T'N'T SSD01:14:1012:06:21.9000:17:58
175206LOGLIOLORENZO1972M2TRI TEAM BRIANZA01:14:1312:01:20.7000:18:01
176339D'ANDREAMATTEOMARCO1984S3THE HURRICANE S.S.D.01:14:1412:06:25.6500:18:02
177205MINGRELLITOMMASO2001YBA.S. DELFINO CHIOGGI01:14:1712:01:24.3500:18:05
178196REIANDREA2000YBPIACENZA TRI VIVO01:14:1712:01:24.5500:18:05
179309CALLEGAROEDOARDO2000YBA.S. DELFINO CHIOGGI01:14:1712:01:24.6500:18:05
180236BIGHELLIMICHELE1981S4PESCHIERA TRI01:14:1712:01:24.7000:18:05
181107LONGHINDIEGO1963M3ASD VICENZA TRIATHLO01:14:1811:54:26.1500:18:05
182207DEL VESCOVOMASSIMILIANO1976M1TRILAKE01:14:2312:01:30.7500:18:11
183135GEMELLILUIGI1972M2TRIBO01:14:2511:54:33.4500:18:13
184387MOTTAFRANCESCO1975M1THE HURRICANE S.S.D.01:14:2512:06:36.7500:18:13
185214BAZZOANDREA1976M1JOY TRIATHLON SCHOOL01:14:2612:01:33.7000:18:14
186386BRACCHIALEX1975M1VENUS TRIATHLON01:14:2712:06:38.8500:18:15
187321BERTUZZOGIANLUCA1991S2DESENZANO TRIATHLON01:14:2812:01:35.7000:18:16
188232TOMASONIDANIELE1974M1CUS BRESCIA01:14:3012:01:37.7500:18:18
189175ZANELLALUCA1966M3CUS TRENTO CTT01:14:3112:01:39.0000:18:19
190132PASINPAOLO1961M4TREVISO TRI01:14:3711:54:45.6000:18:25
191179PIANTIMASSIMO1961M4GALILEO TRIATHLON01:14:3912:01:46.2500:18:27
192213SICAGIANLUCA1978S4FUMANE TRIATHLON01:14:4112:01:49.0000:18:29
193174VISCAALESSANDRO1965M3FLIPPER EIFFEL ASCOL01:14:4812:01:55.2500:18:36
194173TOSOLORENZO2000YBCANOTRIATHLON01:14:5612:02:04.0500:18:44
195122BELLINGHIGIAN ELIA1985S3+KUOTA01:14:5711:55:05.3000:18:45
196317CRISTINIJACOPO1992S2TRIATHLON CREMONA ST01:14:5912:02:06.9000:18:47
197328GOLINOFRANCESCO1989S2ASD VICENZA TRIATHLO01:15:0112:02:08.8000:18:49
198391PADERNIENRICO1975M1OLIMPIC TRIATHLON01:15:0812:07:19.9000:18:56
199332GUGGIOLARICCARDO1988S2ALMOSTHERE ASD01:15:0912:07:20.5000:18:57
200139VITULANORAFFAELE1970M2PPRTEAM01:15:1211:55:20.4000:19:00
201136STEFANONIALESSIO1979S4PROGETTO VISTA TRIAT01:15:1811:55:26.1000:19:05
202346SANDRINIROBERTO1982S4VENUS TRIATHLON01:15:2112:07:32.9500:19:09
203633PRADAEMANUELE1970M2TESSERAMENTO GIORNALIERO01:15:3012:07:41.9500:19:18
204169RODELLADAVIDE1970M2CANOTRIATHLON01:15:3312:02:40.1000:19:20
205140SPINELLIMATTEO DIEGO1981S4A.S.D. TORINO TRIATH01:15:3711:55:45.9500:19:25
206199USMELLIROBERTO1976M1DDS01:15:4012:02:47.7000:19:28
207113FROSIOSTEFANO1972M2SGM TRIATHLON01:15:4111:55:49.7000:19:29
208240MANTOVANIANDREA1985S3GRANBIKE TRIATHLON01:15:4212:02:49.8500:19:30
209142CAVAGNINIALBERTO1967M3FREEZONE01:15:4511:55:53.7500:19:33
210197QUARTAIVAN ORAZIO1971M2ASD SPEZIA TRIATHLO01:15:4612:02:53.3500:19:34
211310TRAZZIMARTINO1999JUVERONA TRIATHLON01:15:4912:02:56.5000:19:37
212134TAVERNAMAURIZIO1972M2CUS UDINE01:15:5211:56:00.3000:19:40
213182BELLUCCOEZIO1961M4PROPATRIA MILANO01:15:5812:03:05.3500:19:46
214359MAIFREDIFABRIZIO GIANLUCA1979S4ASD CNM TRIATHLON01:15:5912:08:10.7000:19:47
215143CINQUETTILUCIO1963M3FUMANE TRIATHLON01:16:0011:56:08.3000:19:48
216146DALL'AGNOLAMARCO1962M4VERONA TRIATHLON01:16:1011:56:18.2500:19:58
217220MARCHESELLINICOLA1971M2ATLETICA MANARA01:16:1012:03:17.4000:19:58
218147SCAGLIARINIGIACOMO1992S2POL.CENTESE T&D01:16:1311:56:21.5000:20:01
219407MORETTIGIANLUCA1972M2EUROPA SSD01:16:1512:08:26.2000:20:03
220145FACCONIMASSIMO1961M4AQUATIC CENTER TRIAT01:16:1511:56:23.9500:20:03
221223PISCIOTTAFRANCESCO1967M3T'N'T SSD01:16:1612:03:23.2500:20:04
222194ALBIEROPAOLO1963M3A.S. DELFINO CHIOGGI01:16:1712:03:25.0000:20:05
223186TURCOPATRIZIO1971M2G.P. TRIATHLON01:16:1912:03:26.3000:20:07
224466OPICIMORENO MARIO1986S3TESSERAMENTO GIORNALIERO01:16:2312:08:34.9000:20:11
225156CANTARELLADAVIDE1978S4VERONA TRIATHLON01:16:2511:56:33.8000:20:13
226121FORTEALESSANDRO1984S3TRI.RN.MAROSTICA01:16:2711:56:35.4500:20:15
227337GRUBERLORENZ1984S3LC BOZEN01:16:3012:08:41.4500:20:18
228152ARGENTONFRANCESCO1961M4CUS PADOVA A.S.D.01:16:3211:56:40.6000:20:20
229414DESTROSTEFANO1970M2A.S. DELFINO CHIOGGI01:16:3412:08:46.0500:20:22
230396CARPINOLUCA1974M1RASCHIANI TRI PAVESE01:16:3512:08:46.5000:20:23
231217GHISANIRENATO1970M2TRIATHLON CREMONA ST01:16:3912:03:46.2000:20:27
232191LOBBALUCA1983S3CY LASER TRI SCHIO01:16:4112:03:48.9500:20:29
233144TORTIMANICOLA1970M2PESCHIERA TRI01:16:4311:56:51.2000:20:31
234228RUGGERIMICHELE1983S3ASD 226 TRIATHLON V.01:16:4712:03:54.8000:20:35
235155GAUDENZIPAOLO1983S3TRIATHLON CREMONA ST01:16:4911:56:57.4000:20:37
236636FACCIOLIIGINO1969M2TESSERAMENTO GIORNALIERO01:16:5312:09:04.2000:20:41
237371UDALIROBERTO1977M1VERONA TRIATHLON01:16:5812:09:09.7500:20:46
238150VERONESIANDREA1972M2COOPERATORI01:17:1711:57:26.0500:21:05
239233GIUDICATTIMASSIMO1967M3TRIATHLON BERGAMO01:17:2012:04:28.0500:21:08
240102ROMANOGIOVANNI1998JUEUROPA SSD01:17:2211:57:30.9000:21:10
241187ZANEENRICO1981S4CASTELFRANCO TRIATHL01:17:2412:04:31.7000:21:12
242374FIORIPAOLO1977M1THE HURRICANE S.S.D.01:17:2512:09:37.0500:21:13
243171CATTINAGIOVANNI1967M3PROPATRIA MILANO01:17:2712:04:35.0000:21:15
244320GUERZONISIMONE1991S2TRIATHLON CONCESIO01:17:3212:04:39.6500:21:20
245364BRUSONIALBERTO1978S4RASCHIANI TRI PAVESE01:17:3412:09:45.7500:21:22
246202SALERNOGIUSEPPE1988S2PROPATRIA MILANO01:17:4512:04:52.4000:21:33
247176GUARNIERIGABRIELE1957M5TRIATHLON BERGAMO01:17:5012:04:57.5500:21:38
248468PASQUONMIRCO1986S3TESSERAMENTO GIORNALIERO01:17:5212:10:03.4500:21:40
249454GHEZZIFEDERICO1993S1TESSERAMENTO GIORNALIERO01:17:5312:10:04.5000:21:41
250172GIBBINDANIELE1967M3A.S. DELFINO CHIOGGI01:17:5812:05:06.0000:21:46
251166PAGETTIELIGIO1957M5PROPATRIA MILANO01:17:5912:05:06.8500:21:47
252263CAVASINPAOLO1984S3A301:18:0312:05:10.9000:21:51
253209PERICOCARLO1957M5TRIATHLON BERGAMO01:18:1012:05:17.2000:21:58
254123PAGANOTTIGIULIO1963M3ASD TEAM HIBISCUS01:18:1011:58:18.6000:21:58
255441HOCHSTETTERFRANK1964M3TRAGUARDO VOLANTE01:18:1112:10:23.0000:21:59
256201GASPARINIANDREA1976M1DESENZANO TRIATHLON01:18:2412:05:31.3000:22:12
257465LORENZETTOALBERTO1987S3TESSERAMENTO GIORNALIERO01:18:2612:10:37.1500:22:13
258170BALESTRIEROROBERTO1967M3FUMANE TRIATHLON01:18:2712:05:34.8500:22:15
259159BUTTURINIMARCO1974M1FERALPI TRIATHLON01:18:2811:58:36.2500:22:16
260268LAZZERIMASSIMO1965M3CUS TRENTO CTT01:18:3112:05:39.0500:22:19
261366SIVIERIGIORGIO1978S4TRI ALTO ADIGE01:18:3512:10:46.8500:22:23
262352PERUZZORAFFAELE1980S4CY LASER TRI SCHIO01:18:3912:10:50.6000:22:27
263440COSTAALESSANDRO1964M3TRIATHLON FAENZA01:18:4112:10:52.4000:22:29
264204LONGOGIUSEPPE1972M2CINGHIALI MANNARI01:18:4712:05:54.7500:22:35
265271PELLEGRINIENRICO1982S4ACQUAMBIENTE TRIATHL01:18:4812:05:55.9500:22:36
266203GONZOGUIDO1960M4CY LASER TRI SCHIO01:18:4912:05:56.4500:22:37
267221BECOROBERTO1968M2A.S.D. VARESE TRIATH01:18:5412:06:01.1000:22:41
268470SAVKOVICOGNJEN1985S3TESSERAMENTO GIORNALIERO01:18:5512:11:06.2500:22:43
269479WOEHLROMAN1983S3TESSERAMENTO GIORNALIERO01:19:1012:11:22.0000:22:58
270243FRINGUELLOFRANCESCO1977M1SPORT MANAGEMENT01:19:1912:06:26.1000:23:06
271253CROCECARLO GIUSEPPE1956M5ASD CNM TRIATHLON01:19:1912:06:26.2500:23:07
272230GANDOLFINICOLA1981S4TRIATHLON CREMONA ST01:19:2612:06:33.2000:23:14
273621BOAROLOCLAUDIO1972M2TESSERAMENTO GIORNALIERO01:19:2912:11:40.9500:23:17
274622VACCARILEONARDO1972M2TESSERAMENTO GIORNALIERO01:19:3712:11:48.4500:23:25
275216AZZOLINIALBERTO1956M5IRONLARIOTRIATH01:19:4312:06:50.8000:23:31
276478CAMPIDAVIDE1983S3TESSERAMENTO GIORNALIERO01:19:4512:11:56.9500:23:33
277195D'AMMORALUCA1969M2PROPATRIA MILANO01:19:5112:06:58.5000:23:39
278273VASONFABIO1957M5PADOVA TRIATHLON01:19:5612:07:03.9000:23:44
279323PREMIMARCO1990S2S.S.D. SCHIANTARELLI01:19:5612:07:04.0500:23:44
280626FRATTINIMASSIMO1971M2TESSERAMENTO GIORNALIERO01:20:0312:12:14.3500:23:51
281628MACORMASSIMO1971M2TESSERAMENTO GIORNALIERO01:20:0412:12:15.4500:23:52
282630BIGGIOGERODAVIDE1970M2TESSERAMENTO GIORNALIERO01:20:0812:12:19.7000:23:56
283283PITTONIGIANCARLO1951M6ROAD RUNNERS01:20:0912:07:16.4500:23:57
284462PASCALEFEDERICO1989S2TESSERAMENTO GIORNALIERO01:20:1412:12:25.7500:24:02
285415CITELLICRISTIANO1970M2HAPPY RUNNER CLUB01:20:2012:12:31.2000:24:08
286226DALLAGROSSAGIUSEPPE1973M1CUS PARMA ASD01:20:2112:07:28.4500:24:09
287211GIANOLADANIELE1973M1ASD TRIATHLON 3V01:20:2112:07:29.0000:24:09
288257BRAISMIRKO1976M1FREEZONE01:20:2312:07:30.8000:24:11
289255PIRAINOLUCA LETTERIO1972M2PROPATRIA MILANO01:20:2812:07:35.3500:24:16
290333FORNAROMATTEO1986S3VERONA TRIATHLON01:20:2812:12:39.7500:24:16
291124BONADIMANIGABRIELE1999JUT'N'T SSD01:20:2912:00:38.0500:24:17
292235GUSSAGONICOLA1976M1FERALPI TRIATHLON01:20:3412:07:41.4000:24:22
293251CARPIPAOLO MAURIZIO1963M370701:20:3512:07:42.7000:24:23
294224CAVALLERIMARCO1964M3FREEZONE01:20:5112:07:58.1000:24:38
295184RATTINICOLA1976M1T.D. CREMONA01:20:5412:08:01.2500:24:42
296256CASTELLIANDREA1972M2VERONA TRIATHLON01:21:0612:08:14.0000:24:54
297402FERRARIDAVIDE1972M2OXYGEN TRIATHLON01:21:0712:13:18.5500:24:55
298319PEDERZOLLIMANUEL1991S2TRILEDROENERGY A.S.D01:21:0812:08:15.1000:24:55
299392DI DONATOANTONIO1975M1THE HURRICANE S.S.D.01:21:1112:13:22.6500:24:59
300434BROMURIFULVIO1966M3ASD CNM TRIATHLON01:21:1312:13:24.4000:25:01
301428ANTIDORMIFABIO1968M2TRIBU'01:21:1412:13:25.3500:25:02
302493PICCOLIENRICO1978S4TESSERAMENTO GIORNALIERO01:21:1512:13:26.1000:25:02
303419RENDAFRANCESCO1970M2SARONNO TRIATHLON01:21:2012:13:31.8500:25:08
304218ZARATTINEDOARDO1983S3ACQUAMBIENTE TRIATHL01:21:2112:08:28.4000:25:09
305361TODESCHINIALESSANDRO1979S4TRIATHLON CONCESIO01:21:2112:13:32.4500:25:09
306246RITARDODOMENICO1958M4TEAM BIKE GUSSAGO AS01:21:2412:08:31.2000:25:12
307241LAZZARINIFABIANO1974M1TRI NOVARA01:21:2812:08:35.1000:25:15
308270MANESSIMARCO1969M2VENUS TRIATHLON01:21:3512:08:42.3500:25:23
309423DALLARIFRANCESCO1969M2AVIA PERVIA01:21:4212:13:54.0000:25:30
310354ZANCAMATTEO1980S4VERONA TRIATHLON01:21:4912:14:00.9500:25:37
311222GREGGIOGIORGIO1967M3SARONNO TRIATHLON01:21:5012:08:57.4000:25:38
312260TROVATOMARIO1973M1ROAD RUNNERS01:21:5012:08:58.0000:25:38
313254MARTINPAOLO1979S4REACTION01:21:5812:09:05.4000:25:46
314347VERDIANIANDREA1982S4OLIMPIACOLLE01:22:0512:14:16.1000:25:52
315379GEREMIAJONATHAN1977M1TRIBU'01:22:0912:14:20.7000:25:57
316480ANNONILUCA1983S3TESSERAMENTO GIORNALIERO01:22:1212:14:24.0000:26:00
317247ZAMPIERIMARCO1971M2DESENZANO TRIATHLON01:22:2012:09:27.2500:26:08
318642GAFFORINIANTONIO1963M3TESSERAMENTO GIORNALIERO01:22:2412:14:35.2500:26:12
319422MIGLIOCRISTIANO1969M2EUROPA SSD01:22:2412:14:35.3500:26:12
320424TEDESCHIPAOLO1969M2ASD SPEZIA TRIATHLO01:22:2412:14:35.8000:26:12
321158MAFFIOLETTINICOLA1996S170701:22:2512:02:33.2500:26:13
322265BLASISIMONE1972M2ASD CNM TRIATHLON01:22:2512:09:32.8000:26:13
323237FIORESTEFANO1978S4HAPPY RUNNER CLUB01:22:3312:09:40.7000:26:21
324248PAULFABIO OTTO PAOLO1964M3LC BRUGHERIO 201:22:3512:09:42.1500:26:22
325297RIZZINIRAINIERO1968M2FREEZONE01:22:5212:09:59.8500:26:40
326285GIUSSANIGIUSEPPE1971M2OXYGEN TRIATHLON01:22:5712:10:04.5000:26:45
327446FACCIOLICLAUDIO1961M433 TT ASD01:22:5912:15:10.9500:26:47
328193GAMBINIFABIO1964M3TRAGUARDO VOLANTE01:23:0112:10:08.3500:26:49
329368TURATOMARCO1977M1PADOVA TRIATHLON01:23:0312:15:14.5000:26:51
330318VIGNATIDAVIDE1991S2OXYGEN TRIATHLON01:23:0512:10:12.7500:26:53
331367PANZIMATTEO1978S4OXYGEN TRIATHLON01:23:1512:15:26.4000:27:03
332429GALBIATILUIGI1968M2DE RAN CLAB01:23:2412:15:35.5000:27:12
333484MICUCCIMARIO1982S4TESSERAMENTO GIORNALIERO01:23:2712:15:38.5500:27:15
334388VEGROANDREA1975M1SARONNO TRIATHLON01:23:2812:15:39.1500:27:15
335215BORHYMAURIZIO1956M5FUMANE TRIATHLON01:23:4312:10:50.3000:27:31
336231SQUILLONIPAOLO1967M3DERMOVITAMINA B) SID01:23:4512:10:52.4000:27:33
337262MOTTASTEFANO1970M2PROPATRIA MILANO01:23:4712:10:54.8500:27:35
338189LABONIAGIANFRANCO1972M2VERDE PISELLO GROUP01:23:4912:10:56.7000:27:37
339250BINSTEFANO1965M3FERALPI TRIATHLON01:24:0512:11:13.0500:27:53
340348ONGAROEMANUELE1982S4ASD 226 TRIATHLON V.01:24:0612:16:17.4500:27:54
341431TRAVAGLIATIROBERTO1967M3DESENZANO TRIATHLON01:24:1212:16:23.8500:28:00
342405SCUDIEROSTEFANO1972M2THE HURRICANE S.S.D.01:24:1712:16:28.8500:28:05
343418PELLALORENZO1970M2TRIATHLON CREMONA ST01:24:1812:16:29.4500:28:06
344239PENNATIFABRIZIO1968M2TRI TEAM BRIANZA01:24:1912:11:26.2500:28:07
345276GAZZOTTIALESSIO1976M1K3 CREMONA01:24:2112:11:28.3500:28:09
346229BORGIOALESSANDRO1964M3IRONBIELLA01:24:2312:11:30.6000:28:11
347305CAROZZIFEDERICO1972M2TP ACADEMY TEAM01:24:2812:11:35.7500:28:16
348471CIACEVALERIO ARMANDO1985S3TESSERAMENTO GIORNALIERO01:24:4512:16:56.8000:28:33
349249NAUMMIMASSIMILIANO1971M2DUEMMECORSE01:24:5112:11:58.4500:28:39
350483SCORTAGIORGIO1982S4TESSERAMENTO GIORNALIERO01:24:5212:17:03.6000:28:40
351458STAGNITTAMATTIA1991S2TESSERAMENTO GIORNALIERO01:24:5512:17:06.4500:28:43
352632MICHELONIEMANUELE1970M2TESSERAMENTO GIORNALIERO01:24:5512:17:06.5000:28:43
353634IANNUCCIANDREA1970M2TESSERAMENTO GIORNALIERO01:25:0712:17:18.6500:28:55
354342CATERINOLUCA1983S3ATOMICA TRIATHLON01:25:1412:17:25.5500:29:02
355264CORTINOVISFEDERICO1987S3TRI RACE ROCK TEAM01:25:1612:12:23.5500:29:04
356408SCARATTILUCA1971M2DESENZANO TRIATHLON01:25:2012:17:31.6000:29:08
357300ROSSONI GEROSAMARCO1973M1TRIATHLON BERGAMO01:25:2912:12:36.9500:29:17
358490COMPARELLIDAVIDE1979S4TESSERAMENTO GIORNALIERO01:25:5112:18:02.3000:29:39
359399LAZZARONIALBERTO1974M1EUROPA SSD01:25:5612:18:07.4000:29:44
360163SOLDA'FILIPPO1979S4CUSIOCUP01:26:1812:06:26.8500:30:06
361275ARRIGHIPIETRO1951M6G.S. MANERBA01:26:2212:13:29.7000:30:10
362278FONTANELLIRICCARDO1966M3G.P. TRIATHLON01:26:2512:13:33.0500:30:13
363436ROSSILORENZO1965M3VERONA TRIATHLON01:26:3312:18:44.3500:30:21
364473NAVASTEFANO1985S3TESSERAMENTO GIORNALIERO01:26:3312:18:44.8500:30:21
365482CARUCCIDOMENICO1982S4TESSERAMENTO GIORNALIERO01:26:3812:18:49.8500:30:26
366612SOMMARIVALORENZO1976M1TESSERAMENTO GIORNALIERO01:26:3912:18:50.7500:30:27
367437CAPPARODOLFO1965M3PROPATRIA MILANO01:26:4012:18:51.4000:30:28
368238SIMONELLISTEFANO1959M4TRAGUARDO VOLANTE01:26:4512:13:53.0500:30:33
369410ERCULIANINICOLA1971M2PESCHIERA TRI01:26:5712:19:08.4500:30:45
370373BERLENDISDIEGO1977M1PESCHIERA TRI01:26:5712:19:09.0000:30:45
371425PARONIPAOLO1969M2PESCHIERA TRI01:26:5912:19:10.4000:30:47
372474AMATOFABIO1984S3TESSERAMENTO GIORNALIERO01:27:1912:19:31.0500:31:07
373486ARMANINIDAVID1981S4TESSERAMENTO GIORNALIERO01:27:2112:19:32.2500:31:09
374291ABRUSCATOVINCENZO1969M2ASD TEAM HIBISCUS01:27:2412:14:32.0000:31:12
375225TICCHIIVAN1964M3OXYGEN TRIATHLON01:27:2812:14:35.6500:31:16
376492POZZANMARTINO1978S4TESSERAMENTO GIORNALIERO01:27:5212:20:03.1500:31:39
377456ROMANORICCARDO1991S2TESSERAMENTO GIORNALIERO01:27:5312:20:04.7500:31:41
378631ASTIERALEXANDRE1970M2TESSERAMENTO GIORNALIERO01:27:5312:20:05.0000:31:41
379252TONELLOTTOFILIPPO1973M1TREVISO TRI01:27:5512:15:02.5500:31:43
380395PELOSIFERRUCCIO1974M1DDS01:27:5912:20:10.6500:31:47
381272DOTTOMARCO1989S2LIGER TEAM KEYLINE01:27:5912:15:06.7500:31:47
382258MONTICOLIDENIS1975M1JALMICCO TRIATHLON01:28:0312:15:10.8000:31:51
383443SBROLLINIFRANCO1963M3T.D. RIMINI01:28:0612:20:17.1500:31:53
384227SPADERSTEVEN1991S2A301:28:0912:15:16.5500:31:57
385463GARZULINOMASSIMO1987S3TESSERAMENTO GIORNALIERO01:28:1412:20:25.4500:32:02
386481CIOCCAALESSANDRO1983S3TESSERAMENTO GIORNALIERO01:28:1512:20:26.5000:32:03
387627SAMPIERIALESSANDRO1971M2TESSERAMENTO GIORNALIERO01:28:1712:20:29.0500:32:05
388455ZAGGIAALBERTO1991S2TESSERAMENTO GIORNALIERO01:28:2212:20:33.9500:32:10
389647BOLLHARALD1962M4ESTERO01:28:2712:20:38.7500:32:15
390259ERBAGGIALESSANDRO AUGUSTO1968M2PROPATRIA MILANO01:28:3012:15:37.1500:32:17
391445GHIDOTTISTEFANO1962M4STEEL T - BG01:28:5512:21:06.4000:32:43
392619LATTUADADAVIDE1972M2TESSERAMENTO GIORNALIERO01:29:0212:21:13.7000:32:50
393286AUGUGLIAROMICHELE1969M2A.S.D. VARESE TRIATH01:29:1812:16:26.0500:33:06
394420BORDESEFRANCESCO1970M2DDS01:29:2512:21:37.0500:33:13
395660CASTELLIMICHELE1964M3TESSERAMENTO GIORNALIERO01:29:2612:21:37.8500:33:14
396284GALLOMARCO1981S4TRAGUARDO VOLANTE01:29:2712:16:34.7000:33:15
397394GANDINILORENZO1975M1FERALPI TRIATHLON01:29:3112:21:42.9000:33:19
398279TOMASIERNESTO1947M7REACTION01:29:5012:16:57.8000:33:38
399477CLERICOFABIO1983S3TESSERAMENTO GIORNALIERO01:29:5512:22:06.8500:33:43
400277GIANNINIWERTHER1975M1SURFING TRI ROMAGNA01:30:0612:17:13.8000:33:54
401472MOTTAMANUELE1985S3TESSERAMENTO GIORNALIERO01:30:0612:22:18.0500:33:54
402644FANIZZIPAOLO1963M3TESSERAMENTO GIORNALIERO01:30:0812:22:19.4500:33:56
403242BORZONEMARCO1969M2RHO TRIATHLON CLUB01:30:1312:17:20.7000:34:01
404438MALAVASILIVIO1965M3DESENZANO TRIATHLON01:30:1912:22:30.8500:34:07
405287MAZZISEBASTIANO1971M2DESENZANO TRIATHLON01:30:2112:17:28.3500:34:09
406617ZANCHIMATTEO1973M1TESSERAMENTO GIORNALIERO01:30:2212:22:33.4000:34:10
407326SUFFRITIPARIDE1990S2TRIATHLON COLLI VELO01:30:2912:17:36.6000:34:17
408613PATTIPINO1975M1TESSERAMENTO GIORNALIERO01:30:3712:22:48.4000:34:25
409308PICCIGABRIELE1977M1OTRE' TRIATHLON TEAM01:30:5612:18:03.5500:34:44
410476MANCINIANDREA1984S3TESSERAMENTO GIORNALIERO01:31:0512:23:16.3000:34:53
411469BERTOLUZZAMASSIMO1985S3TESSERAMENTO GIORNALIERO01:31:0712:23:18.7000:34:55
412266FERRARIOMASSIMO1983S3PROPATRIA MILANO01:31:1112:18:18.4000:34:59
413282FISCHETTIMASSIMO1964M3HAPPY RUNNER CLUB01:31:1612:18:23.2000:35:04
414385MANESSIFLAVIO1975M1EUROPA SSD01:31:1812:23:29.7500:35:06
415304TOMMASINICESARE1971M2CALYPSO TRIATHLON01:31:2512:18:32.6500:35:13
416298MUTTOANDREA1974M1FUMANE TRIATHLON01:31:3412:18:41.1500:35:21
417274BURLINIMARIO1955M5FCZ TRIATHLON01:31:3612:18:43.7500:35:24
418244CREMASIMONE1970M2PESCHIERA TRI01:32:0112:19:08.6000:35:49
419210SALETTIFABRIZIO1969M2PESCHIERA TRI01:32:0212:19:09.6000:35:50
420629PERRELLAMASSIMILIANO1970M2TESSERAMENTO GIORNALIERO01:32:4312:24:54.2000:36:31
421299CASILLOANTONIO1965M3ASD SPEZIA TRIATHLO01:32:4912:19:56.8000:36:37
422623SOLIANIENRICO1972M2TESSERAMENTO GIORNALIERO01:33:3812:25:49.7500:37:26
423294SARTORIDANIELE1983S333 TT ASD01:33:5412:21:01.3500:37:42
424442RUDELLOFULVIO1963M3TRI TEAM BRIANZA01:34:0012:26:11.5500:37:48
425358GIOVONISALVATORE1979S4TRIATHLON BERGAMO01:34:1212:26:23.3500:38:00
426280OPIPARIENRICO1948M6RHO TRIATHLON CLUB01:34:1712:21:24.3000:38:05
427643MARCOLORENZI1963M3TESSERAMENTO GIORNALIERO01:34:4812:26:59.4500:38:36
428625BARRETTASTEFANO1971M2TESSERAMENTO GIORNALIERO01:34:5612:27:07.2500:38:44
429292DEL LONGOGIANANGELO1971M2JOY TRIATHLON SCHOOL01:35:0512:22:12.6500:38:53
430639BERTOLDIALESSANDRO1966M3TESSERAMENTO GIORNALIERO01:35:2212:27:33.7000:39:10
431377FRUETTIZIANO1977M1TRAGUARDO VOLANTE01:35:2712:27:38.9500:39:15
432325DALLAVALLEMATTEO1990S2S.S.D. SCHIANTARELLI01:35:3012:22:37.7500:39:18
433620VALENTINOMICHELE1972M2TESSERAMENTO GIORNALIERO01:36:2812:28:39.6000:40:16
434615RIGHETTIDANIELE1974M1TESSERAMENTO GIORNALIERO01:36:2912:28:40.4000:40:17
435383APRE'ROBERTO1976M1VERONA TRIATHLON01:37:2812:29:39.3500:41:16
436641MARIANIPAOLO1965M3TESSERAMENTO GIORNALIERO01:37:5512:30:06.9000:41:43
437450FIORINIPAOLO1953M5VERONA TRIATHLON01:37:5712:30:08.1000:41:44
438303PRETTOROMEO1973M1VERONA TRIATHLON01:38:0412:25:11.5000:41:52
439403RAISISTEFANO1972M2PROGETTO VISTA TRIAT01:38:0512:30:16.4000:41:53
440646GOZZINIPIERO1963M3TESSERAMENTO GIORNALIERO01:38:4312:30:54.8000:42:31
44155MARCIGAGLIAMATTIA1978S4PESCHIERA TRI01:39:0012:19:08.6000:42:48
442290LAMACCHIAFRANCO1954M5PROPATRIA MILANO01:39:0412:26:11.2000:42:52
443301MANDELLIGIORGIO1948M6TRIATHLON BERGAMO01:39:3512:26:42.4000:43:23
444406HROVATINMASSIMO1972M2POOL SPORT01:39:5812:32:09.6500:43:46
445635BARRETTASIMONE1969M2TESSERAMENTO GIORNALIERO01:40:1612:32:27.4500:44:04
446350MAGGIONIANDREA1981S4DDS01:40:4512:32:56.6500:44:33
447288GIONIMATTEO1969M2CANOTRIATHLON01:40:4612:27:53.6500:44:34
448296COLLINIEMANUELE1958M4ROAD RUNNERS01:41:0912:28:17.0000:44:57
449467FONTANAMATTEO1986S3TESSERAMENTO GIORNALIERO01:41:1612:33:28.0500:45:04
450433PITACCOFABRIZIO1966M3DESENZANO TRIATHLON01:41:2412:33:35.4500:45:12
451624ERRICOLUCA1972M2TESSERAMENTO GIORNALIERO01:42:0912:34:20.8500:45:57
452447COMPRILUIGI1961M4TRAGUARDO VOLANTE01:42:4712:34:58.4500:46:35
453293GROPPOFABIO1959M4A301:42:5012:29:57.1500:46:37
454421CAMPANILEUGO1970M2CONERO WELLNESS01:43:1212:35:23.2500:47:00
455307PAPPALETTERALUCA1977M1HAPPY RUNNER CLUB01:45:1512:32:22.3000:49:03
456302STREITBERGERANDREAS1956M5LC BOZEN01:45:1712:32:24.9000:49:05
457485LO SASSODANIELE1981S4TESSERAMENTO GIORNALIERO01:56:1912:48:30.1001:00:06
FORNITORI UFFICIALI >>
ISTITUZIONI >>
MEDIA PARTNERS >>